sat.trackr.live / text

‹ back to catalog

CORVUS BC1

NORAD 42847 · 2017-042Y

PAYLOAD ACTIVE UNKNOWN

§ Identity

Operator
Country
US
Launch date
2017-07-14
Launch site
TYMSC
Launch vehicle
Mass (kg)
RCS (m²)

Purposes: tech_demo

External: N2YO · Heavens-Above · Gunter

§ Orbital elements

Epoch: 2026-09-19T21:25:08.511168Z

Period
95.56 min
Inclination
97.4212°
Eccentricity
0.0013182
Mean motion
15.06940483 rev/d
Perigee alt
536.4 km
Apogee alt
554.7 km
Semi-major
6,923.7 km
B*
1.1090e-4
RAAN
61.5370°
Arg perigee
120.0810°
Mean anomaly
240.1727°
Rev number
50,135

§ Raw data

CORVUS BC11 42847U 17042Y   26262.89245962  .00001601  00000+0  11090-3 0  99932 42847  97.4212  61.5370 0013182 120.0810 240.1727 15.06940483501358

JSON: /api/v1/satellites/42847 · /tle

For live sub-satellite position, see the globe view (requires WebGL).

§ Visibility from observer

Set your observer location to see the next 7 days of passes ≥ 10°. The values pass through the URL so the page stays shareable.

No JS? Fill the form by hand. The geolocation button needs JavaScript.

§ Radio — SatNOGS DB

ModeDescriptionDownlinkUplink
BPSK S-band telemetry 2.240 GHz
FM TLM (inactive) 400.175 MHz

2 transmitters · refreshed weekly from db.satnogs.org